This is the latest recevied weather packets stored in our database for station/object I1SXT-13. If no packets are shown the sender has not sent any weather packets the latest 10 day(s).
| Time | Temp. | Humidity | Pressure | Rain* | Wind** | Luminosity | Snow |
|---|---|---|---|---|---|---|---|
| 1777742665 | 18.33° C | 51% | 1022.5 hPa | 0 mm | - | - | - |
| 1777742368 | 18.33° C | 49% | 1023 hPa | 0 mm | - | - | - |
| 1777742063 | 18.89° C | 49% | 1023.3 hPa | 0 mm | - | - | - |
| 1777741766 | 18.89° C | 50% | 1022.7 hPa | 0 mm | - | - | - |
| 1777741469 | 19.44° C | 47% | 1022.3 hPa | 0 mm | - | - | - |
| 1777741165 | 19.44° C | 46% | 1022.5 hPa | 0 mm | - | - | - |
| 1777740868 | 19.44° C | 45% | 1022.1 hPa | 0 mm | - | - | - |
| 1777740564 | 19.44° C | 48% | 1022.6 hPa | 0 mm | - | - | - |
| 1777740267 | 19.44° C | 45% | 1021.8 hPa | 0 mm | - | - | - |
| 1777739970 | 20° C | 46% | 1022.8 hPa | 0 mm | - | - | - |
| 1777739666 | 20° C | 45% | 1022.8 hPa | 0 mm | - | - | - |
| 1777739065 | 20° C | 47% | 1023.5 hPa | 0 mm | - | - | - |
| 1777738767 | 20° C | 47% | 1023.2 hPa | 0 mm | - | - | - |
| 1777738464 | 20° C | 44% | 1022.9 hPa | 0 mm | - | - | - |
| 1777738166 | 20° C | 45% | 1023.4 hPa | 0 mm | - | - | - |
| 1777737869 | 20° C | 46% | 1023 hPa | 0 mm | - | - | - |
| 1777737565 | 20° C | 43% | 1024.1 hPa | 0 mm | - | - | - |
| 1777736964 | 20.56° C | 40% | 1024 hPa | 0 mm | - | - | - |
| 1777736369 | 21.11° C | 40% | 1023.8 hPa | 0 mm | - | - | - |
| 1777736066 | 21.11° C | 41% | 1023.8 hPa | 0 mm | - | - | - |
| 1777735768 | 21.11° C | 37% | 1023.6 hPa | 0 mm | - | - | - |
| 1777735464 | 21.67° C | 37% | 1023.9 hPa | 0 mm | - | - | - |
| 1777735167 | 21.11° C | 38% | 1023.7 hPa | 0 mm | - | - | - |
| 1777734870 | 21.67° C | 34% | 1023.7 hPa | 0 mm | - | - | - |
| 1777734566 | 21.67° C | 38% | 1023.4 hPa | 0 mm | - | - | - |
* Rain since midnight (hover to see other rain measurements)
** Current wind speed in m/s (hover to see current wind gust speed)